Weather History for Pine Ridge, SD

Change the Weather History Date:

Tuesday, January 29, 2013

  Actual Average Record
Temperature  
Mean Temperature 22 °F 24 °F  
Max Temperature 32 °F 38 °F 54 °F (2012)
Min Temperature 12 °F 11 °F -2 °F (2008)
Degree Days  
Heating Degree Days 43 41  
Month to date heating degree days 1221 1204  
Since 1 July heating degree days 4024 4194  
Cooling Degree Days 0 0  
Month to date cooling degree days 0 0  
Year to date cooling degree days 0 0  
Moisture  
Dew Point 18 °F    
Average Humidity 82    
Maximum Humidity 100    
Minimum Humidity 63    
Precipitation  
Precipitation 0.01 in 0.01 in 0.35 in (2001)
Month to date precipitation 0.73 0.29  
Year to date precipitation 0.73 0.29  
Sea Level Pressure  
Sea Level Pressure 29.88 in    
Wind  
Wind Speed 9 mph (NW)    
Max Wind Speed 25 mph    
Max Gust Speed 33 mph    
Visibility 7 miles    
Events Snow    
T = Trace of Precipitation, MM = Missing Value Source: NWS Daily Summary

Daily Weather History Graph

Daily Weather History Graph

Search for Another Location

Airport:

Trip Planner

Search our weather history database for the weather conditions in past years. The results will help you decide how hot, cold, wet, or windy it might be!

Date:

Astronomy

Jan. 29, 2013 Rise Set
Actual Time 7:07 AM MST 4:59 PM MST
Civil Twilight 6:37 AM MST 5:29 PM MST
Nautical Twilight 6:03 AM MST 6:03 PM MST
Astronomical Twilight 5:30 AM MST 6:37 PM MST
Moon 8:03 PM MST (1/29) 8:00 AM MST (1/29)
Length of Visible Light 10h 51m
Length of Day
9h 51m
Waning Gibbous, 93% of the Moon is Illuminated
Jan 29
Waning Gibbous
Feb 3
Last Quarter
Feb 10
New
Feb 17
First Quarter
Feb 25
Full

Hourly Weather History & Observations

Time (MST) Temp. Windchill Dew Point Humidity Pressure Visibility Wind Dir Wind Speed Gust Speed Precip Events Conditions
12:52 AM 27.0 °F - 26.1 °F 96% 29.79 in 10.0 mi Calm Calm - N/A   Overcast
1:52 AM 27.0 °F 21.6 °F 25.0 °F 92% 29.79 in 10.0 mi West 4.6 mph - N/A   Overcast
2:07 AM 26.6 °F 22.6 °F 24.8 °F 93% 29.71 in 10.0 mi WSW 3.5 mph - N/A   Overcast
2:52 AM 27.0 °F 18.7 °F 25.0 °F 92% 29.80 in 10.0 mi SW 8.1 mph - N/A   Overcast
3:29 AM 24.8 °F 19.1 °F 23.0 °F 93% 29.71 in 10.0 mi WSW 4.6 mph - N/A   Overcast
3:52 AM 26.1 °F 21.9 °F 24.1 °F 92% 29.80 in 10.0 mi WSW 3.5 mph - N/A   Mostly Cloudy
4:12 AM 24.8 °F 20.5 °F 23.0 °F 93% 29.70 in 10.0 mi North 3.5 mph - N/A   Partly Cloudy
4:52 AM 19.9 °F 12.1 °F 19.0 °F 96% 29.80 in 10.0 mi WSW 5.8 mph - N/A   Partly Cloudy
5:52 AM 21.9 °F 15.7 °F 19.9 °F 92% 29.79 in 10.0 mi West 4.6 mph - N/A   Partly Cloudy
6:52 AM 16.0 °F 10.4 °F 12.0 °F 84% 29.81 in 10.0 mi WSW 3.5 mph - N/A   Clear
7:52 AM 15.1 °F - 12.9 °F 91% 29.83 in 9.0 mi Calm Calm - N/A   Clear
8:52 AM 19.9 °F 13.4 °F 18.0 °F 92% 29.83 in 10.0 mi WSW 4.6 mph - N/A   Clear
9:52 AM 24.1 °F - 21.0 °F 88% 29.82 in 10.0 mi Calm Calm - 0.02 in   Clear
10:52 AM 25.0 °F 16.3 °F 19.9 °F 81% 29.84 in 10.0 mi WSW 8.1 mph - 0.06 in   Clear
11:52 AM 27.0 °F 18.7 °F 21.0 °F 78% 29.84 in 10.0 mi WSW 8.1 mph - 0.01 in   Clear
12:52 PM 30.0 °F 26.5 °F 21.9 °F 72% 29.83 in 10.0 mi West 3.5 mph - N/A   Clear
1:52 PM 30.9 °F 25.2 °F 21.0 °F 67% 29.82 in 10.0 mi West 5.8 mph - N/A   Clear
2:52 PM 32.0 °F 23.6 °F 21.0 °F 64% 29.83 in 10.0 mi NW 10.4 mph - N/A   Clear
3:52 PM 30.0 °F 21.1 °F 21.9 °F 72% 29.86 in 10.0 mi WNW 10.4 mph - N/A   Clear
4:52 PM 27.0 °F 23.0 °F 19.9 °F 75% 29.92 in 10.0 mi WNW 3.5 mph - N/A   Mostly Cloudy
5:26 PM 28.4 °F 23.3 °F 21.2 °F 74% 29.83 in 5.0 mi NNW 4.6 mph - 0.00 in Snow Light Snow
5:47 PM 28.4 °F 22.2 °F 23.0 °F 80% 29.85 in 10.0 mi NNW 5.8 mph - 0.00 in   Overcast
5:52 PM 28.9 °F 18.2 °F 23.0 °F 78% 29.95 in 10.0 mi NW 13.8 mph 18.4 mph 0.00 in   Overcast
6:42 PM 26.6 °F 13.8 °F 21.2 °F 80% 29.88 in 2.5 mi North 17.3 mph 33.4 mph 0.00 in Snow Light Snow
6:45 PM 26.6 °F 12.7 °F 21.2 °F 80% 29.88 in 1.8 mi North 20.7 mph 33.4 mph 0.00 in Snow Light Snow
6:52 PM 25.0 °F 9.2 °F 21.0 °F 85% 30.01 in 1.0 mi North 25.3 mph 32.2 mph 0.00 in Snow Light Snow
7:52 PM 21.9 °F 6.9 °F 17.1 °F 82% 30.04 in 1.2 mi North 19.6 mph 28.8 mph 0.00 in Snow Light Snow
8:15 PM 21.2 °F 8.3 °F 15.8 °F 80% 29.92 in 3.0 mi North 13.8 mph 27.6 mph 0.00 in Snow Light Snow
8:39 PM 19.4 °F 2.5 °F 12.2 °F 74% 29.93 in 2.0 mi North 23.0 mph 31.1 mph 0.00 in Snow Light Snow
8:52 PM 18.0 °F 1.7 °F 12.9 °F 81% 30.08 in 3.0 mi North 19.6 mph 32.2 mph 0.00 in Snow Light Snow
9:36 PM 17.6 °F 0.9 °F 12.2 °F 79% 29.95 in 2.5 mi North 20.7 mph 28.8 mph 0.00 in Snow Light Snow
9:49 PM 17.6 °F 4.3 °F 12.2 °F 79% 29.96 in 3.0 mi North 12.7 mph - 0.00 in Snow Light Snow
9:52 PM 17.1 °F 2.5 °F 10.9 °F 77% 30.10 in 3.0 mi North 15.0 mph - 0.00 in Snow Light Snow
10:09 PM 15.8 °F 1.4 °F 10.4 °F 79% 29.97 in 7.0 mi North 13.8 mph 23.0 mph 0.00 in Snow Light Snow
10:52 PM 15.1 °F -0.1 °F 8.1 °F 74% 30.13 in 3.0 mi North 15.0 mph - 0.00 in Snow Light Snow
11:22 PM 14.0 °F -0.8 °F 6.8 °F 73% 29.99 in 2.0 mi NNW 13.8 mph - 0.00 in Snow Light Snow
11:52 PM 12.9 °F -0.2 °F 7.0 °F 77% 30.12 in 2.0 mi NNW 10.4 mph - 0.00 in Snow Light Snow